| time (UTC) | temp F | wind direction | speed MPH | gust MPH | rain 1hr in | rain 24hr in | rain mn in | humidity % | barometer mb |
| 20260903020515 | 76 | 169 | 0.0 | 0.0 | 0.00 | 0.00 | 0.00 | 88 | 1016.7 |
| 20260903020039 | 77 | 169 | 0.0 | 0.0 | 0.00 | 0.00 | 0.00 | 88 | 1016.7 |
| 20260903015516 | 77 | 169 | 0.0 | 0.0 | 0.00 | 0.00 | 0.00 | 87 | 1016.7 |
| 20260903015003 | 77 | 169 | 0.0 | 0.0 | 0.00 | 0.00 | 0.00 | 87 | 1016.6 |
| 20260903014512 | 78 | 169 | 0.0 | 0.0 | 0.00 | 0.00 | 0.00 | 86 | 1016.6 |
| 20260903014004 | 78 | 169 | 0.0 | 0.0 | 0.00 | 0.00 | 0.00 | 86 | 1016.6 |
| 20260903013509 | 78 | 169 | 0.0 | 0.0 | 0.00 | 0.00 | 0.00 | 84 | 1016.5 |
| 20260903013020 | 79 | 169 | 0.0 | 0.0 | 0.00 | 0.00 | 0.00 | 84 | 1016.5 |
| 20260903012509 | 79 | 169 | 0.0 | 0.0 | 0.00 | 0.00 | 0.00 | 84 | 1016.5 |
| 20260903012011 | 79 | 169 | 0.0 | 0.0 | 0.00 | 0.00 | 0.00 | 83 | 1016.6 |
| 20260903011526 | 80 | 169 | 0.0 | 0.0 | 0.00 | 0.00 | 0.00 | 82 | 1016.5 |
| 20260903011015 | 80 | 169 | 0.0 | 0.0 | 0.00 | 0.00 | 0.00 | 81 | 1016.4 |
| 20260903010514 | 81 | 169 | 0.0 | 0.0 | 0.00 | 0.00 | 0.00 | 80 | 1016.3 |
| 20260903010032 | 82 | 169 | 0.0 | 2.0 | 0.00 | 0.00 | 0.00 | 79 | 1016.3 |
| 20260903005514 | 82 | 169 | 0.0 | 2.0 | 0.00 | 0.00 | 0.00 | 77 | 1016.3 |
| 20260903005018 | 82 | 169 | 0.0 | 2.0 | 0.00 | 0.00 | 0.00 | 76 | 1016.2 |
| 20260903004534 | 82 | 169 | 0.0 | 2.0 | 0.00 | 0.00 | 0.00 | 76 | 1016.2 |
| 20260903004004 | 83 | 169 | 0.0 | 2.0 | 0.00 | 0.00 | 0.00 | 76 | 1016.0 |
| 20260903003504 | 83 | 169 | 1.0 | 2.0 | 0.00 | 0.00 | 0.00 | 75 | 1015.9 |
| 20260903003015 | 83 | 169 | 0.0 | 2.0 | 0.00 | 0.00 | 0.00 | 75 | 1015.9 |
| 20260903002509 | 84 | 169 | 1.0 | 2.0 | 0.00 | 0.00 | 0.00 | 74 | 1015.9 |
| 20260903002011 | 84 | 169 | 0.0 | 1.0 | 0.00 | 0.00 | 0.00 | 73 | 1016.0 |
| 20260903001653 | 84 | 169 | 1.0 | 2.0 | 0.00 | 0.00 | 0.00 | 72 | 1015.9 |
| 20260903001042 | 85 | 192 | 1.0 | 2.0 | 0.00 | 0.00 | 0.00 | 71 | 1015.9 |
| 20260903000512 | 85 | 142 | 0.0 | 3.0 | 0.00 | 0.00 | 0.00 | 71 | 1016.0 |
| 20260903000039 | 85 | 196 | 0.0 | 3.0 | 0.00 | 0.00 | 0.00 | 71 | 1016.0 |
| 20260902235513 | 86 | 205 | 1.0 | 2.0 | 0.00 | 0.00 | 0.00 | 70 | 1016.0 |
| 20260902235013 | 86 | 205 | 1.0 | 3.0 | 0.00 | 0.00 | 0.00 | 70 | 1016.0 |
| 20260902234530 | 86 | 197 | 0.0 | 3.0 | 0.00 | 0.00 | 0.00 | 69 | 1016.0 |
| 20260902234016 | 87 | 168 | 0.0 | 2.0 | 0.00 | 0.00 | 0.00 | 69 | 1016.0 |
| 20260902233517 | 87 | 163 | 1.0 | 3.0 | 0.00 | 0.00 | 0.00 | 69 | 1015.9 |
| 20260902233034 | 87 | 195 | 1.0 | 3.0 | 0.00 | 0.00 | 0.00 | 67 | 1016.0 |
| 20260902232508 | 87 | 205 | 1.0 | 3.0 | 0.00 | 0.00 | 0.00 | 67 | 1016.0 |
| 20260902232051 | 88 | 180 | 1.0 | 3.0 | 0.00 | 0.00 | 0.00 | 67 | 1016.0 |
| 20260902231523 | 88 | 192 | 1.0 | 3.0 | 0.00 | 0.00 | 0.00 | 66 | 1015.9 |
| 20260902231009 | 88 | 196 | 2.0 | 5.0 | 0.00 | 0.00 | 0.00 | 65 | 1015.9 |
| 20260902230508 | 88 | 165 | 1.0 | 5.0 | 0.00 | 0.00 | 0.00 | 65 | 1015.8 |
| 20260902230026 | 88 | 218 | 1.0 | 4.0 | 0.00 | 0.00 | 0.00 | 64 | 1015.9 |
| 20260902225513 | 89 | 184 | 1.0 | 4.0 | 0.00 | 0.00 | 0.00 | 63 | 1015.9 |
| 20260902225012 | 89 | 193 | 1.0 | 4.0 | 0.00 | 0.00 | 0.00 | 63 | 1016.0 |
| 20260902224533 | 89 | 221 | 1.0 | 6.0 | 0.00 | 0.00 | 0.00 | 62 | 1016.0 |
| 20260902224014 | 90 | 190 | 0.0 | 6.0 | 0.00 | 0.00 | 0.00 | 61 | 1015.9 |
| 20260902223516 | 90 | 205 | 1.0 | 7.0 | 0.00 | 0.00 | 0.00 | 60 | 1016.0 |
| 20260902223051 | 91 | 144 | 3.0 | 7.0 | 0.00 | 0.00 | 0.00 | 59 | 1016.0 |
| 20260902222516 | 91 | 200 | 2.0 | 5.0 | 0.00 | 0.00 | 0.00 | 59 | 1016.0 |
| 20260902222018 | 91 | 267 | 1.0 | 6.0 | 0.00 | 0.00 | 0.00 | 59 | 1016.1 |
| 20260902221520 | 91 | 279 | 1.0 | 12.0 | 0.00 | 0.00 | 0.00 | 58 | 1016.0 |
| 20260902221008 | 91 | 246 | 4.0 | 12.0 | 0.00 | 0.00 | 0.00 | 57 | 1016.0 |
| 20260902220510 | 92 | 219 | 2.0 | 7.0 | 0.00 | 0.00 | 0.00 | 57 | 1016.0 |
| 20260902220024 | 92 | 153 | 2.0 | 7.0 | 0.00 | 0.00 | 0.00 | 56 | 1016.0 |
| 20260902215509 | 92 | 280 | 2.0 | 8.0 | 0.00 | 0.00 | 0.00 | 55 | 1015.9 |
| 20260902215014 | 92 | 223 | 2.0 | 8.0 | 0.00 | 0.00 | 0.00 | 56 | 1015.9 |
| 20260902214529 | 92 | 215 | 2.0 | 6.0 | 0.00 | 0.00 | 0.00 | 55 | 1016.0 |
| 20260902214016 | 92 | 175 | 3.0 | 10.0 | 0.00 | 0.00 | 0.00 | 54 | 1016.1 |
| 20260902213517 | 92 | 229 | 4.0 | 10.0 | 0.00 | 0.00 | 0.00 | 54 | 1016.1 |
| 20260902213031 | 92 | 163 | 4.0 | 10.0 | 0.00 | 0.00 | 0.00 | 58 | 1016.0 |
| 20260902212514 | 92 | 286 | 3.0 | 10.0 | 0.00 | 0.00 | 0.00 | 56 | 1016.0 |
| 20260902212020 | 92 | 165 | 1.0 | 7.0 | 0.00 | 0.00 | 0.00 | 57 | 1016.1 |
| 20260902211534 | 92 | 202 | 3.0 | 7.0 | 0.00 | 0.00 | 0.00 | 55 | 1016.1 |
| 20260902211015 | 92 | 146 | 2.0 | 6.0 | 0.00 | 0.00 | 0.00 | 57 | 1016.0 |
| 20260902210514 | 92 | 177 | 3.0 | 8.0 | 0.00 | 0.00 | 0.00 | 55 | 1016.0 |
| 20260902210021 | 92 | 297 | 1.0 | 13.0 | 0.00 | 0.00 | 0.00 | 56 | 1016.1 |
| 20260902205512 | 92 | 256 | 3.0 | 13.0 | 0.00 | 0.00 | 0.00 | 55 | 1016.1 |
| 20260902205012 | 92 | 182 | 4.0 | 11.0 | 0.00 | 0.00 | 0.00 | 56 | 1016.2 |
| 20260902204540 | 92 | 181 | 4.0 | 9.0 | 0.00 | 0.00 | 0.00 | 54 | 1016.2 |
| 20260902204016 | 92 | 213 | 4.0 | 9.0 | 0.00 | 0.00 | 0.00 | 54 | 1016.3 |
| 20260902203524 | 92 | 223 | 3.0 | 9.0 | 0.00 | 0.00 | 0.00 | 54 | 1016.3 |
| 20260902203029 | 92 | 338 | 3.0 | 9.0 | 0.00 | 0.00 | 0.00 | 55 | 1016.4 |
| 20260902202517 | 92 | 208 | 4.0 | 8.0 | 0.00 | 0.00 | 0.00 | 55 | 1016.5 |
| 20260902202014 | 92 | 168 | 4.0 | 7.0 | 0.00 | 0.00 | 0.00 | 57 | 1016.6 |
| 20260902201533 | 92 | 188 | 3.0 | 9.0 | 0.00 | 0.00 | 0.00 | 59 | 1016.7 |
| 20260902201018 | 92 | 207 | 5.0 | 9.0 | 0.00 | 0.00 | 0.00 | 56 | 1016.7 |
| 20260902200518 | 92 | 162 | 3.0 | 8.0 | 0.00 | 0.00 | 0.00 | 60 | 1016.7 |
| 20260902200036 | 91 | 193 | 1.0 | 8.0 | 0.00 | 0.00 | 0.00 | 60 | 1016.7 |
| 20260902195519 | 92 | 175 | 1.0 | 9.0 | 0.00 | 0.00 | 0.00 | 57 | 1016.8 |
| 20260902195010 | 93 | 171 | 4.0 | 9.0 | 0.00 | 0.00 | 0.00 | 55 | 1016.8 |
| 20260902194528 | 93 | 209 | 3.0 | 9.0 | 0.00 | 0.00 | 0.00 | 57 | 1016.9 |
| 20260902194014 | 93 | 191 | 2.0 | 9.0 | 0.00 | 0.00 | 0.00 | 60 | 1017.0 |
| 20260902193514 | 92 | 265 | 2.0 | 7.0 | 0.00 | 0.00 | 0.00 | 60 | 1016.9 |
| 20260902193033 | 92 | 270 | 2.0 | 5.0 | 0.00 | 0.00 | 0.00 | 59 | 1017.1 |
| 20260902192518 | 91 | 325 | 2.0 | 6.0 | 0.00 | 0.00 | 0.00 | 60 | 1017.1 |
| 20260902192013 | 91 | 159 | 2.0 | 9.0 | 0.00 | 0.00 | 0.00 | 60 | 1017.2 |
| 20260902191534 | 91 | 175 | 3.0 | 9.0 | 0.00 | 0.00 | 0.00 | 58 | 1017.3 |
| 20260902191015 | 92 | 171 | 4.0 | 10.0 | 0.00 | 0.00 | 0.00 | 57 | 1017.3 |
| 20260902190519 | 92 | 185 | 4.0 | 10.0 | 0.00 | 0.00 | 0.00 | 57 | 1017.3 |
| 20260902190037 | 92 | 180 | 4.0 | 9.0 | 0.00 | 0.00 | 0.00 | 56 | 1017.4 |
| 20260902185518 | 92 | 284 | 3.0 | 9.0 | 0.00 | 0.00 | 0.00 | 58 | 1017.3 |
| 20260902185018 | 92 | 187 | 2.0 | 7.0 | 0.00 | 0.00 | 0.00 | 58 | 1017.3 |
| 20260902184543 | 92 | 309 | 3.0 | 10.0 | 0.00 | 0.00 | 0.00 | 58 | 1017.4 |
| 20260902184012 | 92 | 220 | 2.0 | 10.0 | 0.00 | 0.00 | 0.00 | 57 | 1017.5 |
| 20260902183514 | 92 | 309 | 4.0 | 9.0 | 0.00 | 0.00 | 0.00 | 57 | 1017.6 |
| 20260902183049 | 92 | 260 | 1.0 | 7.0 | 0.00 | 0.00 | 0.00 | 61 | 1017.5 |
| 20260902182517 | 92 | 190 | 2.0 | 7.0 | 0.00 | 0.00 | 0.00 | 58 | 1017.6 |
| 20260902182015 | 92 | 305 | 3.0 | 7.0 | 0.00 | 0.00 | 0.00 | 57 | 1017.8 |
| 20260902181533 | 92 | 288 | 3.0 | 11.0 | 0.00 | 0.00 | 0.00 | 59 | 1017.9 |
| 20260902181017 | 92 | 169 | 2.0 | 11.0 | 0.00 | 0.00 | 0.00 | 59 | 1017.8 |
| 20260902180518 | 92 | 224 | 2.0 | 7.0 | 0.00 | 0.00 | 0.00 | 58 | 1017.9 |
| 20260902180038 | 92 | 209 | 1.0 | 7.0 | 0.00 | 0.00 | 0.00 | 61 | 1017.9 |
| 20260902175516 | 92 | 314 | 3.0 | 7.0 | 0.00 | 0.00 | 0.00 | 60 | 1017.9 |
| 20260902175018 | 91 | 207 | 2.0 | 6.0 | 0.00 | 0.00 | 0.00 | 61 | 1018.0 |
| 20260902174533 | 91 | 107 | 1.0 | 7.0 | 0.00 | 0.00 | 0.00 | 62 | 1018.0 |
| 20260902174019 | 91 | 183 | 2.0 | 8.0 | 0.00 | 0.00 | 0.00 | 59 | 1018.2 |
| 20260902173522 | 91 | 302 | 3.0 | 8.0 | 0.00 | 0.00 | 0.00 | 59 | 1018.3 |
| 20260902173043 | 91 | 268 | 2.0 | 8.0 | 0.00 | 0.00 | 0.00 | 61 | 1018.3 |
| 20260902172514 | 91 | 175 | 2.0 | 7.0 | 0.00 | 0.00 | 0.00 | 62 | 1018.4 |
| 20260902172014 | 91 | 297 | 3.0 | 7.0 | 0.00 | 0.00 | 0.00 | 61 | 1018.4 |
| 20260902171533 | 91 | 189 | 3.0 | 7.0 | 0.00 | 0.00 | 0.00 | 61 | 1018.5 |
| 20260902171015 | 91 | 169 | 3.0 | 6.0 | 0.00 | 0.00 | 0.00 | 62 | 1018.5 |
| 20260902170517 | 90 | 254 | 2.0 | 7.0 | 0.00 | 0.00 | 0.00 | 63 | 1018.6 |
| 20260902170034 | 90 | 294 | 4.0 | 7.0 | 0.00 | 0.00 | 0.00 | 62 | 1018.6 |
| 20260902165515 | 90 | 283 | 2.0 | 9.0 | 0.00 | 0.00 | 0.00 | 64 | 1018.6 |
| 20260902165015 | 90 | 180 | 1.0 | 9.0 | 0.00 | 0.00 | 0.00 | 64 | 1018.6 |
| 20260902164521 | 90 | 292 | 4.0 | 6.0 | 0.00 | 0.00 | 0.00 | 61 | 1018.6 |
| 20260902164010 | 90 | 267 | 1.0 | 6.0 | 0.00 | 0.00 | 0.00 | 65 | 1018.6 |
| 20260902163511 | 89 | 317 | 3.0 | 6.0 | 0.00 | 0.00 | 0.00 | 65 | 1018.6 |
| 20260902163004 | 89 | 290 | 3.0 | 6.0 | 0.00 | 0.00 | 0.00 | 63 | 1018.6 |
| 20260902162501 | 89 | 195 | 3.0 | 6.0 | 0.00 | 0.00 | 0.00 | 64 | 1018.6 |
| 20260902162004 | 89 | 213 | 2.0 | 6.0 | 0.00 | 0.00 | 0.00 | 67 | 1018.5 |
| 20260902161504 | 89 | 209 | 2.0 | 6.0 | 0.00 | 0.00 | 0.00 | 66 | 1018.5 |
| 20260902161004 | 89 | 252 | 2.0 | 7.0 | 0.00 | 0.00 | 0.00 | 66 | 1018.6 |
| 20260902160504 | 89 | 249 | 2.0 | 7.0 | 0.00 | 0.00 | 0.00 | 63 | 1018.6 |
| 20260902160014 | 89 | 299 | 3.0 | 6.0 | 0.00 | 0.00 | 0.00 | 65 | 1018.6 |
| 20260902155506 | 89 | 288 | 2.0 | 6.0 | 0.00 | 0.00 | 0.00 | 68 | 1018.6 |
| 20260902155004 | 89 | 197 | 2.0 | 6.0 | 0.00 | 0.00 | 0.00 | 69 | 1018.7 |
| 20260902154516 | 88 | 116 | 1.0 | 6.0 | 0.00 | 0.00 | 0.00 | 69 | 1018.7 |
| 20260902154008 | 88 | 267 | 2.0 | 7.0 | 0.00 | 0.00 | 0.00 | 67 | 1018.8 |
| 20260902153510 | 88 | 152 | 2.0 | 7.0 | 0.00 | 0.00 | 0.00 | 67 | 1018.9 |
| 20260902153020 | 87 | 243 | 2.0 | 7.0 | 0.00 | 0.00 | 0.00 | 70 | 1018.8 |
| 20260902152512 | 87 | 253 | 3.0 | 7.0 | 0.00 | 0.00 | 0.00 | 69 | 1018.7 |
| 20260902152013 | 87 | 297 | 2.0 | 7.0 | 0.00 | 0.00 | 0.00 | 71 | 1018.8 |
| 20260902151506 | 86 | 172 | 2.0 | 7.0 | 0.00 | 0.00 | 0.00 | 71 | 1018.8 |
| 20260902151004 | 86 | 244 | 3.0 | 7.0 | 0.00 | 0.00 | 0.00 | 69 | 1018.7 |
| 20260902150504 | 86 | 170 | 2.0 | 6.0 | 0.00 | 0.00 | 0.00 | 71 | 1018.6 |
| 20260902150010 | 86 | 309 | 2.0 | 7.0 | 0.00 | 0.00 | 0.00 | 71 | 1018.7 |
| 20260902145506 | 85 | 279 | 2.0 | 7.0 | 0.00 | 0.00 | 0.00 | 72 | 1018.7 |
| 20260902145007 | 85 | 232 | 1.0 | 7.0 | 0.00 | 0.00 | 0.00 | 75 | 1018.7 |
| 20260902144510 | 85 | 188 | 3.0 | 7.0 | 0.00 | 0.00 | 0.00 | 72 | 1018.7 |
| 20260902144008 | 85 | 316 | 2.0 | 7.0 | 0.00 | 0.00 | 0.00 | 71 | 1018.6 |
| 20260902143508 | 85 | 329 | 4.0 | 7.0 | 0.00 | 0.00 | 0.00 | 72 | 1018.6 |
| 20260902143020 | 84 | 180 | 1.0 | 7.0 | 0.00 | 0.00 | 0.00 | 74 | 1018.5 |
| 20260902142512 | 84 | 292 | 3.0 | 7.0 | 0.00 | 0.00 | 0.00 | 75 | 1018.6 |
| 20260902142010 | 84 | 271 | 1.0 | 6.0 | 0.00 | 0.00 | 0.00 | 76 | 1018.5 |
| 20260902141523 | 83 | 307 | 1.0 | 6.0 | 0.00 | 0.00 | 0.00 | 76 | 1018.6 |
| 20260902141013 | 82 | 203 | 2.0 | 6.0 | 0.00 | 0.00 | 0.00 | 79 | 1018.5 |
| 20260902140501 | 82 | 237 | 1.0 | 4.0 | 0.00 | 0.00 | 0.00 | 79 | 1018.4 |
| 20260902140004 | 81 | 291 | 1.0 | 4.0 | 0.00 | 0.00 | 0.00 | 80 | 1018.4 |
| 20260902135504 | 81 | 273 | 1.0 | 4.0 | 0.00 | 0.00 | 0.00 | 79 | 1018.4 |
| 20260902135007 | 81 | 302 | 1.0 | 5.0 | 0.00 | 0.00 | 0.00 | 80 | 1018.4 |
| 20260902134510 | 81 | 181 | 2.0 | 5.0 | 0.00 | 0.00 | 0.00 | 80 | 1018.4 |
| 20260902134008 | 80 | 281 | 0.0 | 9.0 | 0.00 | 0.00 | 0.00 | 83 | 1018.4 |
| 20260902133509 | 80 | 201 | 2.0 | 7.0 | 0.00 | 0.00 | 0.00 | 84 | 1018.4 |
| 20260902133016 | 79 | 188 | 2.0 | 4.0 | 0.00 | 0.00 | 0.00 | 84 | 1018.4 |
| 20260902132512 | 79 | 175 | 1.0 | 2.0 | 0.00 | 0.00 | 0.00 | 85 | 1018.4 |
| 20260902132010 | 78 | 205 | 0.0 | 4.0 | 0.00 | 0.00 | 0.00 | 86 | 1018.4 |
| 20260902131523 | 77 | 190 | 0.0 | 4.0 | 0.00 | 0.00 | 0.00 | 86 | 1018.4 |
| 20260902131012 | 77 | 180 | 1.0 | 3.0 | 0.00 | 0.00 | 0.00 | 87 | 1018.3 |
| 20260902130512 | 76 | 173 | 1.0 | 3.0 | 0.00 | 0.00 | 0.00 | 88 | 1018.2 |
| 20260902130027 | 76 | 184 | 0.0 | 5.0 | 0.00 | 0.00 | 0.00 | 88 | 1018.3 |
| 20260902125504 | 76 | 235 | 1.0 | 5.0 | 0.00 | 0.00 | 0.00 | 88 | 1018.2 |
| 20260902125005 | 75 | 195 | 0.0 | 2.0 | 0.00 | 0.00 | 0.00 | 90 | 1018.3 |
| 20260902124511 | 75 | 200 | 0.0 | 3.0 | 0.00 | 0.00 | 0.00 | 90 | 1018.2 |
| 20260902124009 | 74 | 189 | 0.0 | 3.0 | 0.00 | 0.00 | 0.00 | 90 | 1018.2 |
| 20260902123506 | 74 | 194 | 2.0 | 3.0 | 0.00 | 0.00 | 0.00 | 91 | 1018.1 |
| 20260902123014 | 73 | 215 | 1.0 | 3.0 | 0.00 | 0.00 | 0.00 | 92 | 1018.2 |
| 20260902122508 | 72 | 194 | 1.0 | 3.0 | 0.00 | 0.00 | 0.00 | 93 | 1018.1 |
| 20260902122009 | 72 | 175 | 1.0 | 2.0 | 0.00 | 0.00 | 0.00 | 94 | 1018.1 |
| 20260902121523 | 71 | 175 | 0.0 | 2.0 | 0.00 | 0.00 | 0.00 | 95 | 1018.2 |
| 20260902121011 | 71 | 175 | 0.0 | 0.0 | 0.00 | 0.00 | 0.00 | 95 | 1018.2 |
| 20260902120512 | 71 | 175 | 0.0 | 0.0 | 0.00 | 0.00 | 0.00 | 95 | 1018.1 |
| 20260902120026 | 71 | 175 | 0.0 | 0.0 | 0.00 | 0.00 | 0.00 | 94 | 1018.0 |
| 20260902115514 | 71 | 175 | 0.0 | 0.0 | 0.00 | 0.00 | 0.00 | 94 | 1018.0 |
| 20260902115015 | 71 | 175 | 0.0 | 2.0 | 0.00 | 0.00 | 0.00 | 94 | 1018.2 |
| 20260902114530 | 71 | 175 | 0.0 | 2.0 | 0.00 | 0.00 | 0.00 | 94 | 1018.0 |
| 20260902114005 | 70 | 175 | 0.0 | 2.0 | 0.00 | 0.00 | 0.00 | 94 | 1017.9 |
| 20260902113505 | 70 | 175 | 0.0 | 2.0 | 0.00 | 0.00 | 0.00 | 95 | 1018.0 |
| 20260902113011 | 70 | 175 | 0.0 | 2.0 | 0.00 | 0.00 | 0.00 | 95 | 1018.0 |
| 20260902112507 | 70 | 175 | 0.0 | 2.0 | 0.00 | 0.00 | 0.00 | 95 | 1017.9 |
| 20260902112008 | 70 | 175 | 0.0 | 2.0 | 0.00 | 0.00 | 0.00 | 95 | 1017.9 |
| 20260902111521 | 70 | 175 | 0.0 | 2.0 | 0.00 | 0.00 | 0.00 | 94 | 1017.9 |
| 20260902111009 | 70 | 175 | 0.0 | 2.0 | 0.00 | 0.00 | 0.00 | 94 | 1017.8 |
| 20260902110511 | 70 | 175 | 0.0 | 1.0 | 0.00 | 0.00 | 0.00 | 94 | 1017.8 |
| 20260902110037 | 70 | 175 | 0.0 | 2.0 | 0.00 | 0.00 | 0.00 | 94 | 1017.9 |
| 20260902105515 | 71 | 175 | 0.0 | 2.0 | 0.00 | 0.00 | 0.00 | 94 | 1017.8 |
| 20260902105014 | 71 | 175 | 0.0 | 2.0 | 0.00 | 0.00 | 0.00 | 94 | 1017.8 |
| 20260902104550 | 71 | 175 | 0.0 | 2.0 | 0.00 | 0.00 | 0.00 | 94 | 1017.7 |
| 20260902104017 | 71 | 175 | 0.0 | 2.0 | 0.00 | 0.00 | 0.00 | 94 | 1017.7 |
| 20260902103516 | 71 | 175 | 0.0 | 2.0 | 0.00 | 0.00 | 0.00 | 94 | 1017.7 |
| 20260902103026 | 71 | 175 | 0.0 | 2.0 | 0.00 | 0.00 | 0.00 | 94 | 1017.7 |
| 20260902102505 | 71 | 175 | 0.0 | 2.0 | 0.00 | 0.00 | 0.00 | 94 | 1017.7 |
| 20260902102007 | 71 | 175 | 0.0 | 2.0 | 0.00 | 0.00 | 0.00 | 94 | 1017.7 |
| 20260902101519 | 71 | 175 | 0.0 | 2.0 | 0.00 | 0.00 | 0.00 | 93 | 1017.7 |
| 20260902101008 | 71 | 175 | 0.0 | 2.0 | 0.00 | 0.00 | 0.00 | 93 | 1017.6 |
| 20260902100512 | 71 | 175 | 0.0 | 2.0 | 0.00 | 0.00 | 0.00 | 94 | 1017.7 |
| 20260902100024 | 71 | 175 | 0.0 | 1.0 | 0.00 | 0.00 | 0.00 | 93 | 1017.7 |
| 20260902095511 | 71 | 175 | 0.0 | 2.0 | 0.00 | 0.00 | 0.00 | 93 | 1017.7 |
| 20260902095012 | 71 | 175 | 0.0 | 2.0 | 0.00 | 0.00 | 0.00 | 93 | 1017.7 |
| 20260902094528 | 71 | 175 | 0.0 | 2.0 | 0.00 | 0.00 | 0.00 | 93 | 1017.7 |
| 20260902094014 | 71 | 175 | 0.0 | 2.0 | 0.00 | 0.00 | 0.00 | 93 | 1017.6 |
| 20260902093515 | 71 | 175 | 0.0 | 2.0 | 0.00 | 0.00 | 0.00 | 94 | 1017.5 |
| 20260902093029 | 71 | 175 | 0.0 | 2.0 | 0.00 | 0.00 | 0.00 | 94 | 1017.5 |
| 20260902092520 | 71 | 175 | 0.0 | 2.0 | 0.00 | 0.00 | 0.00 | 94 | 1017.5 |
| 20260902092009 | 71 | 175 | 0.0 | 2.0 | 0.00 | 0.00 | 0.00 | 94 | 1017.6 |
| 20260902091515 | 71 | 175 | 0.0 | 2.0 | 0.00 | 0.00 | 0.00 | 94 | 1017.6 |
| 20260902091006 | 71 | 175 | 0.0 | 2.0 | 0.00 | 0.00 | 0.00 | 94 | 1017.7 |
| 20260902090514 | 71 | 175 | 0.0 | 0.0 | 0.00 | 0.00 | 0.00 | 94 | 1017.7 |
| 20260902090027 | 71 | 175 | 0.0 | 2.0 | 0.00 | 0.00 | 0.00 | 94 | 1017.7 |
| 20260902085510 | 71 | 175 | 0.0 | 2.0 | 0.00 | 0.00 | 0.00 | 95 | 1017.7 |
| 20260902085014 | 71 | 175 | 0.0 | 2.0 | 0.00 | 0.00 | 0.00 | 95 | 1017.7 |
| 20260902084536 | 71 | 175 | 0.0 | 2.0 | 0.00 | 0.00 | 0.00 | 95 | 1017.6 |
| 20260902084014 | 71 | 175 | 0.0 | 1.0 | 0.00 | 0.00 | 0.00 | 95 | 1017.4 |
| 20260902083520 | 71 | 175 | 0.0 | 0.0 | 0.00 | 0.00 | 0.00 | 94 | 1017.4 |
| 20260902083032 | 71 | 175 | 0.0 | 0.0 | 0.00 | 0.00 | 0.00 | 94 | 1017.4 |
| 20260902082516 | 71 | 175 | 0.0 | 0.0 | 0.00 | 0.00 | 0.00 | 93 | 1017.4 |
| 20260902082017 | 71 | 175 | 0.0 | 2.0 | 0.00 | 0.00 | 0.00 | 93 | 1017.5 |
| 20260902081533 | 71 | 175 | 0.0 | 2.0 | 0.00 | 0.00 | 0.00 | 93 | 1017.4 |
| 20260902081018 | 71 | 175 | 0.0 | 2.0 | 0.00 | 0.00 | 0.00 | 94 | 1017.2 |
| 20260902080507 | 71 | 175 | 0.0 | 2.0 | 0.00 | 0.00 | 0.00 | 94 | 1017.1 |
| 20260902080022 | 71 | 175 | 0.0 | 2.0 | 0.00 | 0.00 | 0.00 | 94 | 1017.2 |
| 20260902075508 | 71 | 175 | 0.0 | 1.0 | 0.00 | 0.00 | 0.00 | 95 | 1017.3 |
| 20260902075015 | 71 | 175 | 0.0 | 0.0 | 0.00 | 0.00 | 0.00 | 94 | 1017.3 |
| 20260902074523 | 71 | 175 | 0.0 | 0.0 | 0.00 | 0.00 | 0.00 | 94 | 1017.3 |
| 20260902074012 | 71 | 175 | 0.0 | 0.0 | 0.00 | 0.00 | 0.00 | 94 | 1017.3 |
| 20260902073516 | 71 | 175 | 0.0 | 0.0 | 0.00 | 0.00 | 0.00 | 93 | 1017.1 |
| 20260902073030 | 72 | 175 | 0.0 | 0.0 | 0.00 | 0.00 | 0.00 | 94 | 1017.2 |
| 20260902072514 | 72 | 175 | 0.0 | 0.0 | 0.00 | 0.00 | 0.00 | 93 | 1017.2 |
| 20260902072016 | 72 | 175 | 0.0 | 2.0 | 0.00 | 0.00 | 0.00 | 94 | 1017.2 |
| 20260902071531 | 72 | 175 | 0.0 | 2.0 | 0.00 | 0.00 | 0.00 | 94 | 1017.3 |
| 20260902071020 | 72 | 175 | 0.0 | 2.0 | 0.00 | 0.00 | 0.00 | 94 | 1017.3 |
| 20260902070518 | 72 | 175 | 0.0 | 2.0 | 0.00 | 0.00 | 0.00 | 94 | 1017.3 |
| 20260902070033 | 72 | 175 | 0.0 | 0.0 | 0.00 | 0.00 | 0.00 | 94 | 1017.2 |
| 20260902065507 | 72 | 175 | 0.0 | 0.0 | 0.00 | 0.00 | 0.00 | 94 | 1017.2 |
| 20260902065012 | 72 | 175 | 0.0 | 0.0 | 0.00 | 0.00 | 0.00 | 94 | 1017.2 |
| 20260902064527 | 72 | 175 | 0.0 | 0.0 | 0.00 | 0.00 | 0.00 | 93 | 1017.3 |
| 20260902064013 | 72 | 175 | 0.0 | 0.0 | 0.00 | 0.00 | 0.00 | 93 | 1017.3 |
| 20260902063510 | 72 | 175 | 0.0 | 0.0 | 0.00 | 0.00 | 0.00 | 93 | 1017.3 |
| 20260902063044 | 73 | 175 | 0.0 | 0.0 | 0.00 | 0.00 | 0.00 | 92 | 1017.3 |
| 20260902062516 | 73 | 175 | 0.0 | 1.0 | 0.00 | 0.00 | 0.00 | 92 | 1017.4 |
| 20260902062013 | 73 | 175 | 0.0 | 1.0 | 0.00 | 0.00 | 0.00 | 92 | 1017.4 |
| 20260902061550 | 73 | 175 | 0.0 | 0.0 | 0.00 | 0.00 | 0.00 | 92 | 1017.4 |
| 20260902061018 | 74 | 175 | 0.0 | 0.0 | 0.00 | 0.00 | 0.00 | 92 | 1017.3 |
| 20260902060503 | 74 | 175 | 0.0 | 2.0 | 0.00 | 0.00 | 0.00 | 92 | 1017.3 |
| 20260902060016 | 74 | 175 | 0.0 | 2.0 | 0.00 | 0.00 | 0.00 | 92 | 1017.3 |
| 20260902055506 | 73 | 175 | 0.0 | 2.0 | 0.00 | 0.00 | 0.00 | 93 | 1017.3 |
| 20260902055010 | 73 | 175 | 0.0 | 2.0 | 0.00 | 0.00 | 0.00 | 93 | 1017.4 |
| 20260902054516 | 73 | 175 | 0.0 | 0.0 | 0.00 | 0.00 | 0.00 | 93 | 1017.2 |
| 20260902054008 | 73 | 175 | 0.0 | 0.0 | 0.00 | 0.00 | 0.00 | 93 | 1017.3 |
| 20260902053508 | 73 | 175 | 0.0 | 0.0 | 0.00 | 0.00 | 0.00 | 93 | 1017.2 |
| 20260902053002 | 73 | 175 | 0.0 | 2.0 | 0.00 | 0.00 | 0.00 | 93 | 1017.2 |
| 20260902052504 | 73 | 175 | 0.0 | 2.0 | 0.00 | 0.00 | 0.00 | 93 | 1017.2 |
| 20260902052004 | 73 | 175 | 0.0 | 1.0 | 0.00 | 0.00 | 0.00 | 94 | 1017.2 |
| 20260902051506 | 73 | 175 | 0.0 | 0.0 | 0.00 | 0.00 | 0.00 | 93 | 1017.2 |
| 20260902051003 | 73 | 175 | 0.0 | 0.0 | 0.00 | 0.00 | 0.00 | 93 | 1017.2 |
| 20260902050508 | 73 | 175 | 0.0 | 0.0 | 0.00 | 0.00 | 0.00 | 93 | 1017.2 |
| 20260902050013 | 73 | 175 | 0.0 | 0.0 | 0.00 | 0.00 | 0.00 | 92 | 1017.1 |
| 20260902045505 | 74 | 175 | 0.0 | 0.0 | 0.00 | 0.00 | 0.00 | 92 | 1017.1 |
| 20260902045008 | 74 | 175 | 0.0 | 0.0 | 0.00 | 0.00 | 0.00 | 92 | 1017.2 |
| 20260902044536 | 74 | 175 | 0.0 | 0.0 | 0.00 | 0.00 | 0.00 | 92 | 1017.2 |
| 20260902044008 | 74 | 175 | 0.0 | 0.0 | 0.00 | 0.00 | 0.00 | 92 | 1017.1 |
| 20260902043508 | 74 | 175 | 0.0 | 0.0 | 0.00 | 0.00 | 0.00 | 92 | 1017.2 |
| 20260902043023 | 74 | 175 | 0.0 | 0.0 | 0.00 | 0.00 | 0.00 | 91 | 1017.2 |
| 20260902042508 | 74 | 175 | 0.0 | 0.0 | 0.00 | 0.00 | 0.00 | 91 | 1017.2 |
| 20260902042011 | 75 | 175 | 0.0 | 0.0 | 0.00 | 0.00 | 0.00 | 91 | 1017.1 |
| 20260902041504 | 75 | 175 | 0.0 | 0.0 | 0.00 | 0.00 | 0.00 | 91 | 1017.1 |
| 20260902041003 | 75 | 175 | 0.0 | 0.0 | 0.00 | 0.00 | 0.00 | 90 | 1017.1 |
| 20260902040503 | 75 | 175 | 0.0 | 2.0 | 0.00 | 0.00 | 0.00 | 91 | 1017.1 |
| 20260902040013 | 75 | 175 | 0.0 | 2.0 | 0.00 | 0.00 | 0.00 | 91 | 1017.1 |
| 20260902035504 | 75 | 175 | 0.0 | 2.0 | 0.00 | 0.00 | 0.00 | 91 | 1017.1 |
| 20260902035005 | 75 | 175 | 0.0 | 2.0 | 0.00 | 0.00 | 0.00 | 92 | 1017.1 |
| 20260902034514 | 75 | 175 | 0.0 | 2.0 | 0.00 | 0.00 | 0.00 | 92 | 1017.2 |
| 20260902034008 | 75 | 175 | 0.0 | 2.0 | 0.00 | 0.00 | 0.00 | 92 | 1017.1 |
| 20260902033512 | 75 | 175 | 0.0 | 0.0 | 0.00 | 0.00 | 0.00 | 92 | 1017.2 |
| 20260902033024 | 75 | 175 | 0.0 | 0.0 | 0.00 | 0.00 | 0.00 | 91 | 1017.2 |
| 20260902032514 | 75 | 175 | 0.0 | 0.0 | 0.00 | 0.00 | 0.00 | 91 | 1017.2 |
| 20260902032016 | 76 | 175 | 0.0 | 2.0 | 0.00 | 0.00 | 0.00 | 91 | 1017.3 |
| 20260902031542 | 76 | 175 | 0.0 | 2.0 | 0.00 | 0.00 | 0.00 | 91 | 1017.3 |
| 20260902031012 | 76 | 175 | 0.0 | 2.0 | 0.00 | 0.00 | 0.00 | 91 | 1017.3 |
| 20260902030503 | 76 | 175 | 0.0 | 2.0 | 0.00 | 0.00 | 0.00 | 92 | 1017.3 |
| 20260902030010 | 76 | 175 | 0.0 | 2.0 | 0.00 | 0.00 | 0.00 | 92 | 1017.3 |
| 20260902025505 | 76 | 175 | 0.0 | 2.0 | 0.00 | 0.00 | 0.00 | 92 | 1017.4 |
| 20260902025004 | 76 | 175 | 0.0 | 2.0 | 0.00 | 0.00 | 0.00 | 92 | 1017.3 |
| 20260902024511 | 76 | 175 | 0.0 | 2.0 | 0.00 | 0.00 | 0.00 | 93 | 1017.4 |
| 20260902024011 | 75 | 175 | 0.0 | 2.0 | 0.00 | 0.00 | 0.00 | 93 | 1017.4 |
| 20260902023508 | 75 | 175 | 0.0 | 2.0 | 0.00 | 0.00 | 0.00 | 93 | 1017.4 |
| 20260902023028 | 75 | 175 | 0.0 | 2.0 | 0.00 | 0.00 | 0.00 | 93 | 1017.4 |
| 20260902022511 | 75 | 175 | 0.0 | 1.0 | 0.00 | 0.00 | 0.00 | 93 | 1017.4 |
| 20260902022011 | 75 | 175 | 0.0 | 0.0 | 0.00 | 0.00 | 0.00 | 93 | 1017.3 |
| 20260902021524 | 76 | 175 | 0.0 | 2.0 | 0.00 | 0.00 | 0.00 | 93 | 1017.3 |
| 20260902021014 | 76 | 175 | 0.0 | 2.0 | 0.00 | 0.00 | 0.00 | 93 | 1017.2 |